Temp
-12 -12 -12 -12 -12 -12 -12 -12 -12 -12 -12 -12 -12 -12 -12 -12 -12 -12 -12 -12 -12 -12 -12 -12 -12 -12 -12 -12 -12 -12 -12 -12
-12 -12 -12 -12 -12 -12 -12 -12 -13 -13 -13 -13 -13 -13 -13 -12 -12 -12 -12 -11 -11 -11 -12 -12 -12 -12 -12 -12 -12 -12 -12 -12
-12 -12 -12 -12 -12 -13 -13 -13 -13 -13 -13 -13 -13 -13 -13 -13 -12 -12 -12 -11 -11 -11 -12 -12 -12 -12 -12 -12 -12 -12 -12 -12
-12 -12 -12 -12 -12 -12 -12 -13 -13 -13 -13 -13 -13 -13 -13 -13 -13 -12 -12 -12 -12 -11 -11 -12 -12 -12 -12 -12 -12 -12 -12 -12
-12 -12 -12 -13 -13 -13 -13 -13 -13 -13 -13 -13 -13 -13 -13 -13 -13 -12 -12 -12 -12 -12 -12 -11 -11 -12 -12 -12 -12 -12 -12 -12
-12 -12 -13 -13 -13 -13 -14 -14 -14 -14 -14 -14 -14 -14 -14 -13 -13 -13 -13 -12 -12 -12 -12 -12 -12 -11 -12 -12 -12 -12 -12 -12
-13 -13 -13 -13 -13 -14 -14 -14 -14 -14 -14 -14 -14 -14 -14 -14 -14 -13 -13 -13 -13 -12 -12 -12 -12 -12 -12 -12 -12 -12 -12 -12
-12 -13 -13 -13 -13 -13 -13 -14 -14 -14 -14 -14 -14 -14 -14 -14 -14 -14 -13 -13 -13 -13 -13 -13 -12 -12 -12 -12 -12 -12 -12 -12
-13 -13 -13 -13 -13 -14 -14 -14 -14 -14 -14 -14 -14 -14 -14 -14 -14 -14 -14 -13 -13 -13 -13 -13 -13 -13 -13 -13 -13 -12 -12 -12
-14 -14 -14 -14 -14 -15 -15 -15 -15 -15 -15 -15 -15 -15 -15 -15 -14 -14 -14 -14 -14 -13 -13 -13 -13 -13 -13 -13 -13 -13 -13 -13
-15 -15 -14 -14 -15 -15 -15 -15 -15 -15 -15 -16 -16 -16 -15 -15 -15 -15 -15 -15 -14 -14 -14 -14 -13 -13 -13 -13 -13 -13 -13 -13
-15 -15 -15 -15 -15 -15 -16 -16 -16 -16 -17 -17 -16 -16 -16 -16 -16 -16 -16 -15 -15 -15 -14 -14 -14 -13 -13 -14 -13 -13 -13 -13
-16 -16 -16 -16 -16 -16 -16 -16 -17 -17 -17 -17 -17 -17 -17 -17 -17 -16 -16 -16 -16 -16 -15 -15 -14 -14 -14 -14 -13 -13 -13 -13
-17 -17 -17 -17 -17 -17 -17 -18 -18 -18 -18 -18 -18 -18 -18 -18 -18 -17 -17 -17 -17 -18 -17 -17 -16 -15 -15 -14 -15 -14 -14 -13
-18 -18 -17 -18 -18 -18 -19 -19 -18 -18 -19 -19 -19 -19 -18 -19 -19 -19 -19 -18 -18 -18 -18 -18 -18 -17 -17 -16 -15 -15 -15 -15
-18 -18 -18 -18 -19 -19 -19 -19 -19 -19 -20 -19 -19 -19 -19 -19 -19 -19 -20 -20 -20 -20 -20 -20 -20 -20 -19 -18 -17 -17 -16 -16
-18 -18 -19 -19 -19 -19 -19 -19 -19 -20 -20 -20 -19 -19 -19 -20 -20 -20 -21 -21 -21 -21 -20 -20 -20 -20 -21 -20 -20 -18 -17 -17
-19 -19 -19 -19 -19 -20 -20 -20 -21 -20 -20 -20 -20 -20 -20 -20 -20 -21 -21 -21 -21 -21 -21 -21 -22 -21 -21 -21 -21 -20 -19 -18
-20 -19 -19 -20 -19 -21 -21 -21 -21 -20 -20 -20 -20 -20 -21 -21 -21 -21 -21 -21 -21 -21 -22 -22 -23 -22 -22 -22 -21 -21 -20 -19
-20 -20 -21 -20 -20 -21 -21 -21 -21 -21 -21 -21 -21 -21 -21 -21 -21 -22 -22 -22 -22 -22 -23 -23 -23 -23 -22 -22 -22 -21 -21 -20
Height
5825 5825 5825 5825 5826 5825 5824 5824 5823 5822 5821 5820 5820 5819 5817 5816 5816 5815 5813 5813 5812 5811 5810 5810 5809 5808 5808 5809 5808 5808 5809 5809
5819 5818 5818 5818 5818 5818 5819 5818 5817 5816 5815 5813 5813 5811 5810 5810 5810 5808 5807 5807 5807 5806 5806 5805 5804 5804 5802 5802 5803 5803 5804 5804
5813 5813 5813 5814 5813 5812 5811 5810 5809 5808 5807 5807 5806 5805 5804 5803 5803 5801 5801 5799 5800 5799 5800 5799 5799 5798 5798 5797 5797 5797 5797 5798
5808 5807 5807 5807 5807 5806 5805 5804 5802 5802 5801 5799 5799 5798 5798 5797 5796 5794 5794 5792 5791 5791 5792 5793 5793 5792 5792 5792 5791 5791 5791 5791
5800 5800 5800 5799 5798 5798 5797 5796 5795 5794 5794 5793 5791 5790 5790 5789 5787 5787 5786 5786 5785 5784 5783 5784 5785 5785 5784 5784 5784 5785 5785 5785
5794 5793 5793 5791 5791 5790 5789 5788 5787 5786 5785 5784 5783 5782 5781 5780 5779 5778 5778 5777 5777 5776 5775 5775 5775 5776 5777 5777 5777 5777 5778 5779
5788 5788 5786 5785 5783 5782 5780 5779 5777 5776 5775 5773 5773 5771 5770 5769 5769 5769 5768 5768 5767 5767 5766 5766 5766 5765 5766 5768 5768 5768 5769 5770
5781 5780 5779 5778 5776 5774 5772 5770 5768 5767 5766 5765 5763 5762 5760 5759 5759 5758 5758 5757 5758 5758 5758 5756 5755 5755 5756 5756 5758 5759 5759 5759
5772 5771 5770 5768 5766 5765 5763 5761 5760 5758 5757 5755 5753 5751 5749 5748 5747 5746 5745 5745 5744 5744 5745 5745 5744 5744 5744 5744 5745 5745 5747 5748
5762 5760 5759 5757 5755 5754 5752 5751 5749 5748 5746 5744 5741 5739 5737 5735 5734 5732 5731 5731 5731 5730 5728 5729 5731 5731 5731 5731 5731 5731 5732 5734
5753 5752 5750 5748 5745 5744 5742 5740 5739 5737 5734 5731 5728 5727 5725 5722 5720 5718 5716 5716 5715 5713 5713 5713 5714 5715 5716 5716 5715 5716 5718 5719
5744 5741 5738 5734 5733 5734 5732 5730 5728 5724 5721 5719 5717 5715 5713 5710 5707 5704 5702 5701 5698 5698 5695 5694 5696 5698 5698 5698 5698 5699 5701 5702
5733 5729 5726 5723 5722 5722 5721 5718 5714 5711 5709 5707 5705 5703 5700 5698 5695 5692 5689 5686 5683 5681 5678 5677 5677 5678 5679 5679 5677 5679 5681 5682
5721 5718 5715 5714 5713 5713 5710 5707 5703 5701 5698 5696 5694 5692 5689 5687 5684 5680 5677 5673 5669 5665 5662 5659 5656 5657 5657 5658 5658 5659 5659 5662
5708 5706 5705 5703 5701 5699 5697 5694 5692 5690 5688 5686 5684 5681 5678 5675 5672 5669 5665 5661 5657 5653 5648 5644 5640 5637 5637 5637 5638 5639 5641 5640
5696 5694 5692 5690 5689 5687 5685 5683 5682 5680 5678 5676 5673 5669 5666 5663 5660 5655 5652 5647 5643 5639 5636 5632 5627 5623 5619 5617 5618 5620 5622 5625
5683 5682 5680 5679 5677 5677 5675 5673 5671 5670 5668 5665 5662 5658 5655 5651 5648 5644 5641 5637 5633 5629 5625 5621 5616 5612 5609 5605 5600 5600 5602 5604
5672 5671 5669 5669 5668 5665 5664 5663 5663 5661 5658 5655 5650 5647 5645 5641 5638 5634 5631 5627 5623 5618 5612 5607 5603 5601 5598 5595 5591 5588 5585 5586
5663 5662 5661 5659 5658 5656 5655 5654 5653 5651 5648 5644 5641 5639 5636 5632 5628 5624 5620 5615 5611 5605 5601 5597 5594 5592 5589 5586 5583 5580 5576 5573
5653 5651 5651 5650 5648 5647 5646 5645 5642 5640 5638 5635 5633 5630 5627 5622 5618 5613 5609 5604 5599 5595 5592 5590 5587 5583 5580 5577 5574 5571 5568 5564
Wind_Speed
30 25 24 25 26 24 25 28 29 30 30 31 32 33 32 31 31 30 27 28 27 28 29 28 27 28 28 28 24 26 25 22
26 25 24 24 24 26 29 30 31 32 33 32 33 33 32 32 32 30 28 28 29 29 29 30 27 28 28 29 27 26 26 26
23 23 23 25 29 29 30 31 32 34 35 36 35 34 33 32 32 32 31 28 29 29 31 29 30 28 30 31 31 28 28 27
25 26 28 29 30 31 32 33 35 37 38 38 37 36 35 34 32 32 32 30 29 29 29 32 32 30 30 31 30 30 29 29
29 31 31 31 32 33 34 36 37 39 40 41 40 39 38 38 36 35 35 35 33 31 31 32 31 32 30 30 28 29 28 29
34 34 35 35 35 36 37 39 41 41 41 43 43 43 44 43 41 40 39 38 38 38 37 37 35 35 34 32 32 31 30 30
35 35 36 37 38 38 40 42 44 44 44 45 46 46 45 45 44 43 43 43 42 42 43 43 42 41 40 40 39 37 36 35
36 37 39 41 42 43 44 45 46 46 46 47 48 48 48 49 49 49 49 48 48 47 48 48 49 47 46 45 44 44 42 41
38 40 42 43 45 46 47 48 48 49 49 50 51 52 53 54 53 53 53 52 53 54 55 54 54 55 54 53 51 50 50 48
41 42 43 45 47 48 50 51 53 54 55 56 57 57 58 59 59 60 60 59 59 60 60 60 60 59 59 60 60 60 58 56
42 45 48 51 51 52 53 54 54 53 53 53 53 54 56 58 59 60 61 61 63 63 62 62 65 66 64 63 64 64 64 64
48 49 51 54 55 54 53 51 53 52 52 52 52 52 51 52 54 56 58 57 57 58 59 61 63 65 67 67 68 69 69 68
49 52 56 57 56 53 52 53 51 52 54 53 51 48 48 50 53 57 58 57 55 55 58 61 62 62 63 64 65 66 69 71
51 55 57 57 55 54 54 51 53 52 50 49 46 46 48 50 53 53 49 49 49 50 50 51 55 62 66 65 64 65 66 69
52 54 53 54 55 51 48 48 47 47 46 45 45 45 45 44 43 43 44 46 48 50 52 54 54 57 58 59 67 64 65 66
48 52 56 58 51 46 41 41 46 45 40 35 38 36 38 40 42 43 44 45 46 47 47 47 48 50 54 57 56 55 57 55
52 48 41 38 40 39 41 44 45 31 34 36 36 37 39 40 40 39 39 41 41 42 46 50 51 46 42 42 45 49 51 47
39 37 37 38 33 39 37 33 30 31 31 34 36 37 38 40 41 42 42 43 44 47 48 42 39 39 38 36 37 37 37 42
38 35 35 37 38 32 32 31 32 33 35 35 35 37 41 42 42 41 41 42 44 42 35 34 32 32 32 33 34 34 33 35
38 40 39 42 45 35 35 34 33 35 36 34 34 37 38 41 40 38 40 42 40 34 32 34 33 32 31 30 30 33 30 27
Wind_Direction
282 278 276 276 281 278 283 281 281 284 285 286 288 287 287 286 283 281 278 283 282 281 281 277 278 276 275 271 267 263 264 265
270 273 273 276 275 276 276 277 278 280 280 282 282 282 281 277 275 271 267 276 276 274 276 275 270 273 272 271 268 264 261 262
272 271 274 269 271 273 274 278 280 281 282 282 282 280 278 277 273 271 265 267 271 271 270 271 266 268 267 272 269 264 261 259
274 271 270 272 274 275 278 280 281 280 279 278 277 276 276 277 276 274 268 265 263 264 264 264 263 263 265 266 266 265 263 261
280 278 276 276 276 278 278 278 278 278 278 278 278 279 280 278 276 274 270 269 265 259 257 257 258 259 258 260 261 262 261 259
278 278 277 277 277 277 277 276 275 276 277 277 278 278 278 279 278 275 273 270 266 260 255 251 249 251 252 252 254 257 260 260
282 281 280 280 278 277 276 275 276 276 276 278 278 278 278 278 277 276 273 271 268 263 259 254 252 249 249 251 251 250 251 255
280 281 281 279 276 274 273 274 275 277 278 278 278 278 278 278 276 275 274 272 271 268 264 260 257 255 255 252 252 254 253 252
278 276 275 275 274 274 274 275 277 278 278 278 279 279 279 278 277 275 273 271 269 268 266 264 260 259 258 258 257 254 254 253
277 276 275 274 273 274 276 277 280 281 282 282 281 280 279 280 279 277 276 274 271 269 267 266 264 261 260 259 259 260 259 258
271 272 272 272 272 273 276 278 281 282 281 280 281 281 282 282 283 283 282 282 280 278 275 270 267 266 263 261 259 259 258 258
273 273 272 273 273 274 279 285 287 287 287 288 290 291 290 289 288 289 289 288 285 282 280 279 275 271 267 265 262 260 259 256
271 272 273 276 281 287 289 290 290 290 292 294 294 290 288 289 288 288 289 290 288 285 281 277 275 273 272 269 266 263 261 258
273 276 280 284 287 286 286 286 287 288 289 289 289 290 291 290 291 294 292 291 292 293 289 285 281 274 270 268 266 265 262 260
277 279 279 281 282 284 287 285 286 287 287 289 290 293 296 295 293 294 294 294 294 293 291 290 289 284 277 273 267 269 266 263
275 273 276 279 280 283 286 281 280 282 288 291 297 294 291 289 291 293 294 295 293 291 293 295 294 291 285 280 273 269 264 263
275 278 281 286 287 278 271 269 276 287 293 295 294 291 290 292 294 297 295 294 293 295 295 295 294 289 291 288 285 275 267 261
286 289 284 278 270 273 280 286 295 296 290 289 290 294 294 294 296 293 291 295 294 295 299 295 289 288 289 290 291 288 275 265
270 265 270 272 269 282 291 296 293 286 288 292 294 295 294 295 294 295 293 295 298 301 301 300 295 294 294 295 293 290 285 269
275 275 279 277 282 291 291 284 283 287 291 294 294 299 300 298 295 297 299 300 302 299 299 299 297 298 298 297 299 300 299 294